Total_Precipitation_Accumulation
2.36 2.39 2.14 2.04 1.94 2.09 2.32 2.32 2.15 2.27 2.41 2.40 2.18 2.05 1.90 1.63 1.49 1.39 1.47 1.82 1.81 1.83 2.07 2.03 1.94 1.83 1.66 1.45 1.34 1.25 1.20 1.10 0.96 0.77 0.70 0.60 0.50 0.40 0.30 0.23 0.20 0.18 0.17
2.22 2.07 2.08 2.11 2.01 2.14 2.15 2.13 2.19 2.39 2.52 2.60 2.29 2.09 1.97 1.80 1.68 1.60 1.55 1.82 1.88 1.77 1.91 2.17 2.27 2.20 2.14 1.91 1.72 1.61 1.50 1.38 1.15 0.86 0.76 0.70 0.59 0.50 0.43 0.40 0.35 0.28 0.21
2.16 2.14 2.07 1.93 1.94 2.02 2.11 2.15 2.21 2.33 2.26 2.31 2.28 2.17 2.07 1.92 1.84 1.72 1.66 1.65 1.52 1.67 1.83 2.02 2.20 2.25 2.35 2.26 2.18 2.08 1.88 1.59 1.30 0.97 0.75 0.71 0.64 0.53 0.48 0.47 0.47 0.39 0.30
1.92 1.97 1.82 1.78 1.87 1.72 1.76 1.87 1.81 1.90 1.99 2.13 2.14 2.00 1.96 1.94 1.81 1.78 1.69 1.58 1.61 1.40 1.70 1.99 2.11 2.02 2.21 2.44 2.63 2.67 2.25 1.74 1.38 1.10 0.87 0.74 0.70 0.58 0.47 0.42 0.42 0.43 0.35
1.50 1.52 1.47 1.54 1.52 1.46 1.47 1.35 1.60 1.70 1.85 1.95 1.89 1.84 1.71 1.83 1.78 1.66 1.63 1.42 1.56 1.52 1.51 1.64 1.87 1.82 2.09 2.50 2.87 2.99 2.73 2.19 1.67 1.41 1.24 1.08 1.00 0.81 0.59 0.50 0.44 0.40 0.35
1.42 1.32 1.25 1.31 1.24 1.29 1.38 1.42 1.56 1.56 1.52 1.60 1.49 1.57 1.55 1.38 1.46 1.48 1.38 1.37 1.34 1.13 1.20 1.39 1.69 1.50 1.85 2.25 2.58 2.79 2.92 2.78 2.32 1.88 1.68 1.62 1.54 1.24 0.82 0.64 0.56 0.49 0.41
1.31 1.32 1.16 1.22 1.12 1.14 1.17 1.17 1.24 1.27 1.23 1.31 1.50 1.51 1.29 1.12 1.12 1.10 1.14 1.29 1.21 1.22 1.32 1.48 1.57 1.56 1.47 1.60 1.78 2.17 2.72 2.97 2.83 2.39 2.05 1.83 1.78 1.56 1.10 0.86 0.70 0.63 0.57
1.08 1.02 1.10 1.08 1.03 1.13 1.16 1.14 1.14 1.13 1.09 1.14 1.31 1.50 1.33 1.22 1.01 0.80 0.95 0.96 1.01 1.25 1.34 1.35 1.40 1.59 1.47 1.62 1.34 1.51 2.15 2.65 3.01 2.89 2.52 2.10 1.83 1.57 1.27 1.07 0.86 0.72 0.67
0.96 0.95 0.92 0.97 1.04 1.00 1.11 1.13 1.04 1.05 1.09 1.06 1.07 1.32 1.37 1.27 1.06 0.80 0.75 0.83 0.95 1.09 1.15 1.33 1.34 1.34 1.32 1.57 1.74 1.56 1.60 1.86 2.57 3.08 3.03 2.48 1.88 1.48 1.34 1.31 1.21 1.02 0.85
0.97 0.90 0.84 0.84 0.90 0.89 1.06 0.92 0.96 1.03 1.08 0.98 0.93 0.93 1.04 1.11 1.16 1.00 0.81 0.75 0.86 0.95 1.01 1.06 1.17 1.35 1.48 1.58 1.73 1.62 1.35 1.41 1.92 2.57 2.95 2.81 2.30 1.77 1.46 1.46 1.66 1.62 1.30
1.12 0.97 0.94 0.87 0.87 0.84 0.90 0.89 1.09 1.07 1.00 0.94 0.92 0.93 0.98 0.95 0.92 0.97 0.90 0.80 0.79 0.70 0.76 0.89 1.12 1.28 1.36 1.53 1.80 1.64 1.36 1.22 1.35 1.77 2.20 2.44 2.43 2.10 1.77 1.67 1.97 2.19 1.97
1.18 1.06 1.02 1.00 0.92 0.88 0.86 0.85 0.99 1.04 1.06 1.06 1.00 0.93 0.98 0.94 0.91 0.99 0.86 0.73 0.70 0.54 0.56 0.71 0.90 1.02 1.13 1.34 1.47 1.49 1.44 1.38 1.33 1.40 1.52 1.74 1.97 2.01 1.93 2.00 2.24 2.45 2.51
0.96 0.95 0.94 0.95 0.84 0.86 0.94 1.02 1.01 1.00 1.04 1.07 1.01 0.94 0.90 0.82 0.89 0.92 0.84 0.70 0.71 0.59 0.70 0.69 0.76 0.99 1.12 1.42 1.50 1.52 1.42 1.39 1.21 1.14 1.16 1.22 1.34 1.54 1.75 1.89 2.12 2.35 2.57
0.93 0.95 0.96 0.89 0.84 0.88 0.90 1.06 0.94 0.91 0.95 0.96 0.86 1.03 0.99 0.80 0.90 0.94 0.97 1.06 0.96 0.87 0.91 0.81 0.86 1.14 1.42 1.52 1.64 1.59 1.30 1.27 1.11 1.00 0.92 0.94 1.01 1.14 1.25 1.38 1.54 1.66 1.80
1.03 1.09 1.04 0.96 0.95 1.00 1.03 1.10 0.98 0.95 1.02 0.95 0.94 1.10 1.07 0.96 0.99 0.97 1.06 1.22 1.29 1.13 1.05 1.07 1.12 1.18 1.36 1.44 1.53 1.43 1.27 1.28 1.12 0.96 0.88 0.85 0.88 0.94 0.99 1.00 1.03 1.09 1.14
1.03 1.11 1.09 1.00 0.98 1.01 1.05 1.11 1.01 1.03 1.05 1.03 1.09 1.21 1.20 1.13 1.14 1.11 1.11 1.21 1.39 1.38 1.22 1.09 1.17 1.18 1.22 1.12 1.23 1.16 1.17 1.25 1.12 1.02 0.98 0.93 0.88 0.87 0.87 0.89 0.90 0.88 0.87
1.09 1.08 1.07 1.05 1.01 1.04 1.09 1.14 1.10 1.10 1.07 1.11 1.12 1.15 1.14 1.22 1.28 1.27 1.34 1.36 1.40 1.53 1.43 1.17 1.24 1.35 1.33 1.17 1.10 1.08 1.06 1.05 1.04 1.09 1.04 1.00 0.92 0.85 0.77 0.74 0.77 0.80 0.78
1.05 1.08 1.09 1.04 0.94 0.99 1.12 1.16 1.11 1.14 1.15 1.12 1.16 1.25 1.19 1.21 1.31 1.36 1.50 1.49 1.53 1.74 1.72 1.50 1.46 1.52 1.43 1.32 1.23 1.16 1.02 0.96 0.97 1.08 1.02 0.95 0.86 0.79 0.76 0.74 0.71 0.70 0.69
1.15 1.10 1.08 0.99 0.95 0.97 1.03 1.08 1.14 1.23 1.27 1.27 1.31 1.36 1.35 1.45 1.44 1.47 1.53 1.53 1.60 1.80 1.93 1.80 1.72 1.79 1.78 1.55 1.42 1.23 1.10 1.10 0.96 0.99 1.01 0.95 0.90 0.85 0.79 0.79 0.78 0.73 0.67
1.20 1.23 1.23 1.24 1.23 1.17 1.13 1.15 1.22 1.26 1.29 1.34 1.42 1.42 1.44 1.52 1.59 1.65 1.66 1.76 1.88 2.05 2.18 2.10 2.01 2.08 2.10 1.94 1.73 1.43 1.33 1.26 1.14 1.00 1.05 1.03 0.98 0.92 0.84 0.77 0.74 0.73 0.72
1.42 1.56 1.55 1.51 1.51 1.44 1.29 1.33 1.35 1.31 1.41 1.35 1.39 1.42 1.38 1.43 1.50 1.61 1.63 1.78 1.99 2.19 2.35 2.39 2.36 2.50 2.43 2.25 1.97 1.63 1.54 1.45 1.31 1.14 1.04 0.94 0.90 0.83 0.80 0.79 0.77 0.77 0.76
1.65 1.71 1.65 1.60 1.58 1.38 1.47 1.51 1.47 1.54 1.57 1.52 1.51 1.53 1.46 1.40 1.38 1.43 1.51 1.63 1.78 1.98 2.22 2.42 2.50 2.57 2.59 2.42 2.20 1.94 1.60 1.35 1.24 1.13 1.12 1.04 0.93 0.88 0.78 0.73 0.82 0.80 0.76
1.56 1.62 1.61 1.56 1.46 1.43 1.40 1.30 1.31 1.32 1.44 1.50 1.51 1.51 1.37 1.23 1.27 1.21 1.30 1.35 1.38 1.48 1.60 1.84 2.06 2.12 2.28 2.35 2.22 1.91 1.63 1.39 1.22 1.17 1.18 1.08 1.01 0.95 0.85 0.82 0.90 0.80 0.74
1.74 1.73 1.66 1.61 1.59 1.51 1.37 1.23 1.23 1.17 1.24 1.29 1.32 1.34 1.33 1.23 1.20 1.23 1.23 1.17 1.08 1.08 1.16 1.20 1.33 1.57 1.79 2.03 2.09 1.98 1.89 1.63 1.34 1.13 1.08 1.03 0.93 0.88 0.84 0.83 0.89 0.83 0.77
1.82 1.81 1.80 1.82 1.84 1.81 1.67 1.40 1.29 1.26 1.35 1.35 1.33 1.32 1.34 1.24 1.25 1.15 1.12 1.09 1.02 0.97 0.97 1.02 1.09 1.26 1.50 1.69 1.89 1.90 1.82 1.71 1.47 1.18 1.03 1.00 0.91 0.87 0.86 0.79 0.78 0.81 0.75
1.71 1.74 1.71 1.78 1.78 1.80 1.82 1.50 1.27 1.16 1.24 1.27 1.33 1.34 1.37 1.27 1.30 1.22 1.22 1.23 1.13 1.02 0.98 0.94 0.97 1.04 1.12 1.36 1.62 1.63 1.58 1.58 1.46 1.24 1.00 0.97 0.91 0.91 0.94 0.78 0.66 0.66 0.68